| time (UTC) | temp F | wind direction | speed MPH | gust MPH | rain 1hr in | rain 24hr in | rain mn in | humidity % | barometer mb |
| 20260510020805 | 75 | 147 | 1.0 | 1.0 | 0.00 | 0.00 | 0.00 | 28 | 1013.2 |
| 20260510015805 | 76 | 131 | 1.0 | 1.0 | 0.00 | 0.00 | 0.00 | 25 | 1013.3 |
| 20260510015306 | 76 | 158 | 1.0 | 1.0 | 0.00 | 0.00 | 0.00 | 32 | 1013.4 |
| 20260510014804 | 77 | 133 | 1.0 | 1.0 | 0.00 | 0.00 | 0.00 | 24 | 1013.3 |
| 20260510014305 | 78 | 146 | 0.0 | 1.0 | 0.00 | 0.00 | 0.00 | 24 | 1013.4 |
| 20260510013304 | 80 | 40 | 0.0 | 1.0 | 0.00 | 0.00 | 0.00 | 21 | 1013.5 |
| 20260510012805 | 79 | 228 | 1.0 | 2.0 | 0.00 | 0.00 | 0.00 | 21 | 1013.5 |
| 20260510012306 | 79 | 84 | 0.0 | 1.0 | 0.00 | 0.00 | 0.00 | 21 | 1013.6 |
| 20260510011805 | 80 | 163 | 0.0 | 1.0 | 0.00 | 0.00 | 0.00 | 24 | 1013.6 |
| 20260510011305 | 80 | 45 | 0.0 | 1.0 | 0.00 | 0.00 | 0.00 | 21 | 1013.6 |
| 20260510010804 | 79 | 217 | 0.0 | 1.0 | 0.00 | 0.00 | 0.00 | 21 | 1013.6 |
| 20260510005804 | 81 | 173 | 1.0 | 1.0 | 0.00 | 0.00 | 0.00 | 19 | 1013.7 |
| 20260510005306 | 81 | 334 | 1.0 | 1.0 | 0.00 | 0.00 | 0.00 | 20 | 1013.8 |
| 20260510004804 | 81 | 30 | 1.0 | 2.0 | 0.00 | 0.00 | 0.00 | 20 | 1013.9 |
| 20260510004304 | 81 | 297 | 1.0 | 2.0 | 0.00 | 0.00 | 0.00 | 19 | 1013.9 |
| 20260510002307 | 81 | 343 | 1.0 | 2.0 | 0.00 | 0.00 | 0.00 | 19 | 1013.9 |
| 20260510001305 | 80 | 354 | 1.0 | 2.0 | 0.00 | 0.00 | 0.00 | 19 | 1014.1 |
| 20260510000305 | 80 | 324 | 1.0 | 2.0 | 0.00 | 0.00 | 0.00 | 19 | 1013.9 |
| 20260509235804 | 80 | 107 | 1.0 | 2.0 | 0.00 | 0.00 | 0.00 | 19 | 1014.0 |
| 20260509235307 | 81 | 149 | 1.0 | 1.0 | 0.00 | 0.00 | 0.00 | 18 | 1014.0 |
| 20260509234804 | 81 | 74 | 1.0 | 2.0 | 0.00 | 0.00 | 0.00 | 18 | 1014.1 |
| 20260509234305 | 82 | 7 | 1.0 | 2.0 | 0.00 | 0.00 | 0.00 | 20 | 1014.2 |
| 20260509233804 | 81 | 7 | 1.0 | 2.0 | 0.00 | 0.00 | 0.00 | 19 | 1014.3 |
| 20260509233304 | 82 | 12 | 1.0 | 2.0 | 0.00 | 0.00 | 0.00 | 19 | 1014.3 |
| 20260509232804 | 82 | 331 | 1.0 | 2.0 | 0.00 | 0.00 | 0.00 | 19 | 1014.4 |
| 20260509232306 | 82 | 12 | 1.0 | 3.0 | 0.00 | 0.00 | 0.00 | 20 | 1014.5 |
| 20260509231805 | 82 | 10 | 1.0 | 2.0 | 0.00 | 0.00 | 0.00 | 20 | 1014.5 |
| 20260509231304 | 81 | 347 | 1.0 | 3.0 | 0.00 | 0.00 | 0.00 | 21 | 1014.7 |
| 20260509230805 | 81 | 14 | 1.0 | 3.0 | 0.00 | 0.00 | 0.00 | 21 | 1014.7 |
| 20260509230305 | 81 | 19 | 1.0 | 2.0 | 0.00 | 0.00 | 0.00 | 22 | 1014.8 |
| 20260509225804 | 81 | 6 | 1.0 | 3.0 | 0.00 | 0.00 | 0.00 | 21 | 1014.9 |
| 20260509224804 | 81 | 28 | 2.0 | 3.0 | 0.00 | 0.00 | 0.00 | 20 | 1015.1 |
| 20260509224304 | 80 | 6 | 2.0 | 3.0 | 0.00 | 0.00 | 0.00 | 22 | 1015.3 |
| 20260509223804 | 81 | 3 | 1.0 | 3.0 | 0.00 | 0.00 | 0.00 | 21 | 1015.3 |
| 20260509223305 | 80 | 31 | 1.0 | 3.0 | 0.00 | 0.00 | 0.00 | 19 | 1015.3 |
| 20260509222804 | 79 | 354 | 1.0 | 3.0 | 0.00 | 0.00 | 0.00 | 19 | 1015.6 |
| 20260509221804 | 79 | 352 | 1.0 | 3.0 | 0.00 | 0.00 | 0.00 | 19 | 1015.8 |
| 20260509220805 | 78 | 16 | 1.0 | 3.0 | 0.00 | 0.00 | 0.00 | 20 | 1015.9 |
| 20260509220304 | 78 | 338 | 2.0 | 3.0 | 0.00 | 0.00 | 0.00 | 20 | 1016.0 |
| 20260509215805 | 77 | 349 | 2.0 | 5.0 | 0.00 | 0.00 | 0.00 | 21 | 1016.0 |
| 20260509215306 | 77 | 40 | 2.0 | 3.0 | 0.00 | 0.00 | 0.00 | 23 | 1016.1 |
| 20260509214805 | 78 | 357 | 2.0 | 3.0 | 0.00 | 0.00 | 0.00 | 22 | 1016.2 |
| 20260509214305 | 77 | 50 | 2.0 | 3.0 | 0.00 | 0.00 | 0.00 | 22 | 1016.2 |
| 20260509213804 | 77 | 351 | 2.0 | 3.0 | 0.00 | 0.00 | 0.00 | 22 | 1016.3 |
| 20260509212804 | 77 | 6 | 2.0 | 3.0 | 0.00 | 0.00 | 0.00 | 24 | 1016.5 |
| 20260509212306 | 77 | 4 | 2.0 | 3.0 | 0.00 | 0.00 | 0.00 | 23 | 1016.5 |
| 20260509211804 | 77 | 0 | 2.0 | 3.0 | 0.00 | 0.00 | 0.00 | 24 | 1016.6 |
| 20260509211304 | 76 | 48 | 1.0 | 2.0 | 0.00 | 0.00 | 0.00 | 24 | 1016.7 |
| 20260509210804 | 76 | 357 | 1.0 | 2.0 | 0.00 | 0.00 | 0.00 | 24 | 1016.8 |
| 20260509205307 | 76 | 25 | 1.0 | 2.0 | 0.00 | 0.00 | 0.00 | 24 | 1017.0 |
| 20260509204805 | 75 | 357 | 1.0 | 3.0 | 0.00 | 0.00 | 0.00 | 25 | 1017.1 |
| 20260509204304 | 75 | 5 | 1.0 | 2.0 | 0.00 | 0.00 | 0.00 | 25 | 1017.2 |
| 20260509203305 | 74 | 40 | 2.0 | 2.0 | 0.00 | 0.00 | 0.00 | 26 | 1017.4 |
| 20260509202306 | 74 | 19 | 1.0 | 2.0 | 0.00 | 0.00 | 0.00 | 28 | 1017.4 |
| 20260509201805 | 73 | 341 | 1.0 | 3.0 | 0.00 | 0.00 | 0.00 | 28 | 1017.5 |
| 20260509201304 | 73 | 357 | 1.0 | 2.0 | 0.00 | 0.00 | 0.00 | 28 | 1017.6 |
| 20260509200304 | 72 | 336 | 1.0 | 3.0 | 0.00 | 0.00 | 0.00 | 32 | 1017.7 |
| 20260509195804 | 72 | 40 | 2.0 | 3.0 | 0.00 | 0.00 | 0.00 | 31 | 1017.8 |
| 20260509195306 | 71 | 348 | 2.0 | 3.0 | 0.00 | 0.00 | 0.00 | 32 | 1018.0 |
| 20260509194804 | 72 | 4 | 1.0 | 2.0 | 0.00 | 0.00 | 0.00 | 30 | 1018.1 |
| 20260509194304 | 72 | 19 | 1.0 | 3.0 | 0.00 | 0.00 | 0.00 | 29 | 1018.2 |
| 20260509193805 | 71 | 340 | 1.0 | 3.0 | 0.00 | 0.00 | 0.00 | 30 | 1018.2 |
| 20260509193305 | 71 | 353 | 1.0 | 3.0 | 0.00 | 0.00 | 0.00 | 29 | 1018.3 |
| 20260509192804 | 70 | 8 | 2.0 | 3.0 | 0.00 | 0.00 | 0.00 | 29 | 1018.4 |
| 20260509192306 | 70 | 24 | 2.0 | 3.0 | 0.00 | 0.00 | 0.00 | 28 | 1018.5 |
| 20260509191804 | 69 | 346 | 1.0 | 2.0 | 0.00 | 0.00 | 0.00 | 32 | 1018.6 |
| 20260509191304 | 69 | 49 | 2.0 | 3.0 | 0.00 | 0.00 | 0.00 | 33 | 1018.5 |
| 20260509190804 | 69 | 341 | 1.0 | 2.0 | 0.00 | 0.00 | 0.00 | 32 | 1018.6 |
| 20260509190304 | 68 | 10 | 2.0 | 3.0 | 0.00 | 0.00 | 0.00 | 33 | 1018.7 |
| 20260509185804 | 68 | 345 | 1.0 | 3.0 | 0.00 | 0.00 | 0.00 | 35 | 1018.8 |
| 20260509184804 | 67 | 40 | 2.0 | 3.0 | 0.00 | 0.00 | 0.00 | 37 | 1018.9 |
| 20260509184305 | 67 | 354 | 2.0 | 3.0 | 0.00 | 0.00 | 0.00 | 37 | 1019.0 |
| 20260509183804 | 66 | 351 | 1.0 | 2.0 | 0.00 | 0.00 | 0.00 | 40 | 1019.0 |
| 20260509183304 | 66 | 11 | 2.0 | 3.0 | 0.00 | 0.00 | 0.00 | 42 | 1019.1 |
| 20260509182804 | 66 | 358 | 2.0 | 3.0 | 0.00 | 0.00 | 0.00 | 41 | 1019.2 |
| 20260509182306 | 66 | 12 | 2.0 | 3.0 | 0.00 | 0.00 | 0.00 | 42 | 1019.2 |
| 20260509181805 | 66 | 12 | 2.0 | 3.0 | 0.00 | 0.00 | 0.00 | 42 | 1019.3 |
| 20260509181304 | 66 | 2 | 2.0 | 3.0 | 0.00 | 0.00 | 0.00 | 43 | 1019.4 |
| 20260509180804 | 65 | 344 | 2.0 | 3.0 | 0.00 | 0.00 | 0.00 | 42 | 1019.4 |
| 20260509175804 | 64 | 355 | 1.0 | 2.0 | 0.00 | 0.00 | 0.00 | 45 | 1019.3 |
| 20260509174804 | 64 | 24 | 1.0 | 3.0 | 0.00 | 0.00 | 0.00 | 45 | 1019.4 |
| 20260509174304 | 64 | 336 | 1.0 | 3.0 | 0.00 | 0.00 | 0.00 | 45 | 1019.4 |
| 20260509173305 | 63 | 0 | 2.0 | 3.0 | 0.00 | 0.00 | 0.00 | 46 | 1019.5 |
| 20260509172805 | 63 | 0 | 2.0 | 3.0 | 0.00 | 0.00 | 0.00 | 46 | 1019.5 |
| 20260509172306 | 62 | 13 | 1.0 | 3.0 | 0.00 | 0.00 | 0.00 | 47 | 1019.5 |
| 20260509171304 | 62 | 0 | 2.0 | 3.0 | 0.00 | 0.00 | 0.00 | 48 | 1019.7 |
| 20260509170805 | 62 | 14 | 1.0 | 2.0 | 0.00 | 0.00 | 0.00 | 48 | 1019.7 |
| 20260509170304 | 62 | 350 | 1.0 | 2.0 | 0.00 | 0.00 | 0.00 | 49 | 1019.8 |
| 20260509165804 | 62 | 4 | 1.0 | 2.0 | 0.00 | 0.00 | 0.00 | 50 | 1020.0 |
| 20260509165306 | 61 | 338 | 1.0 | 2.0 | 0.00 | 0.00 | 0.00 | 50 | 1020.0 |
| 20260509164804 | 60 | 355 | 1.0 | 3.0 | 0.00 | 0.00 | 0.00 | 52 | 1020.1 |
| 20260509164305 | 60 | 329 | 1.0 | 2.0 | 0.00 | 0.00 | 0.00 | 52 | 1020.1 |
| 20260509163305 | 58 | 270 | 1.0 | 3.0 | 0.00 | 0.00 | 0.00 | 55 | 1020.3 |
| 20260509162804 | 58 | 11 | 2.0 | 3.0 | 0.00 | 0.00 | 0.00 | 57 | 1020.3 |
| 20260509162307 | 57 | 271 | 2.0 | 3.0 | 0.00 | 0.00 | 0.00 | 57 | 1020.3 |
| 20260509161805 | 57 | 327 | 1.0 | 2.0 | 0.00 | 0.00 | 0.00 | 58 | 1020.3 |
| 20260509161304 | 57 | 36 | 2.0 | 2.0 | 0.00 | 0.00 | 0.00 | 57 | 1020.4 |
| 20260509160804 | 57 | 0 | 1.0 | 2.0 | 0.00 | 0.00 | 0.00 | 57 | 1020.5 |
| 20260509160304 | 56 | 345 | 1.0 | 3.0 | 0.00 | 0.00 | 0.00 | 59 | 1020.5 |
| 20260509155804 | 56 | 332 | 2.0 | 5.0 | 0.00 | 0.00 | 0.00 | 59 | 1020.5 |
| 20260509155306 | 56 | 297 | 2.0 | 3.0 | 0.00 | 0.00 | 0.00 | 60 | 1020.6 |
| 20260509154804 | 55 | 282 | 5.0 | 7.0 | 0.00 | 0.00 | 0.00 | 60 | 1020.7 |
| 20260509154304 | 55 | 288 | 3.0 | 6.0 | 0.00 | 0.00 | 0.00 | 62 | 1020.7 |
| 20260509153804 | 55 | 265 | 3.0 | 6.0 | 0.00 | 0.00 | 0.00 | 62 | 1020.7 |
| 20260509153305 | 55 | 261 | 3.0 | 5.0 | 0.00 | 0.00 | 0.00 | 62 | 1020.7 |
| 20260509152804 | 54 | 299 | 1.0 | 3.0 | 0.00 | 0.00 | 0.00 | 62 | 1020.7 |
| 20260509152306 | 54 | 274 | 3.0 | 5.0 | 0.00 | 0.00 | 0.00 | 62 | 1020.6 |
| 20260509151805 | 55 | 305 | 3.0 | 3.0 | 0.00 | 0.00 | 0.00 | 61 | 1020.6 |
| 20260509151303 | 55 | 31 | 1.0 | 3.0 | 0.00 | 0.00 | 0.00 | 61 | 1020.6 |
| 20260509150804 | 55 | 56 | 1.0 | 3.0 | 0.00 | 0.00 | 0.00 | 62 | 1020.7 |
| 20260509150305 | 54 | 14 | 1.0 | 2.0 | 0.00 | 0.00 | 0.00 | 63 | 1020.6 |
| 20260509145804 | 54 | 107 | 2.0 | 3.0 | 0.00 | 0.00 | 0.00 | 63 | 1020.6 |
| 20260509145306 | 54 | 61 | 2.0 | 3.0 | 0.00 | 0.00 | 0.00 | 63 | 1020.7 |
| 20260509144804 | 54 | 342 | 2.0 | 3.0 | 0.00 | 0.00 | 0.00 | 65 | 1020.7 |
| 20260509144304 | 54 | 352 | 2.0 | 3.0 | 0.00 | 0.00 | 0.00 | 65 | 1020.7 |
| 20260509143804 | 54 | 344 | 1.0 | 2.0 | 0.00 | 0.00 | 0.00 | 65 | 1020.7 |
| 20260509143304 | 54 | 342 | 1.0 | 2.0 | 0.00 | 0.00 | 0.00 | 65 | 1020.7 |
| 20260509142804 | 54 | 333 | 1.0 | 2.0 | 0.00 | 0.00 | 0.00 | 64 | 1020.7 |
| 20260509142307 | 53 | 21 | 1.0 | 2.0 | 0.00 | 0.00 | 0.00 | 64 | 1020.7 |
| 20260509141804 | 52 | 23 | 1.0 | 2.0 | 0.00 | 0.00 | 0.00 | 65 | 1020.7 |
| 20260509141304 | 52 | 184 | 1.0 | 2.0 | 0.00 | 0.00 | 0.00 | 66 | 1020.7 |
| 20260509140804 | 51 | 179 | 1.0 | 3.0 | 0.00 | 0.00 | 0.00 | 66 | 1020.7 |
| 20260509140304 | 51 | 206 | 1.0 | 2.0 | 0.00 | 0.00 | 0.00 | 70 | 1020.7 |
| 20260509135804 | 51 | 181 | 1.0 | 2.0 | 0.00 | 0.00 | 0.00 | 70 | 1020.7 |
| 20260509135306 | 50 | 170 | 1.0 | 1.0 | 0.00 | 0.00 | 0.00 | 70 | 1020.7 |
| 20260509134804 | 51 | 260 | 1.0 | 1.0 | 0.00 | 0.00 | 0.00 | 70 | 1020.7 |
| 20260509134304 | 51 | 155 | 1.0 | 2.0 | 0.00 | 0.00 | 0.00 | 69 | 1020.7 |
| 20260509133803 | 51 | 244 | 2.0 | 8.0 | 0.00 | 0.00 | 0.00 | 71 | 1020.7 |
| 20260509132804 | 51 | 343 | 1.0 | 3.0 | 0.00 | 0.00 | 0.00 | 72 | 1020.8 |
| 20260509132306 | 51 | 153 | 1.0 | 3.0 | 0.00 | 0.00 | 0.00 | 68 | 1020.8 |
| 20260509131804 | 51 | 304 | 1.0 | 3.0 | 0.00 | 0.00 | 0.00 | 70 | 1020.7 |
| 20260509130804 | 51 | 263 | 6.0 | 10.0 | 0.00 | 0.00 | 0.00 | 69 | 1020.6 |
| 20260509130304 | 51 | 286 | 7.0 | 14.0 | 0.00 | 0.00 | 0.00 | 69 | 1020.5 |
| 20260509125804 | 51 | 266 | 7.0 | 13.0 | 0.00 | 0.00 | 0.00 | 69 | 1020.4 |
| 20260509125307 | 51 | 276 | 6.0 | 10.0 | 0.00 | 0.00 | 0.00 | 70 | 1020.3 |
| 20260509124804 | 51 | 270 | 6.0 | 9.0 | 0.00 | 0.00 | 0.00 | 69 | 1020.3 |
| 20260509124304 | 51 | 283 | 5.0 | 9.0 | 0.00 | 0.00 | 0.00 | 70 | 1020.3 |
| 20260509123804 | 51 | 306 | 5.0 | 8.0 | 0.00 | 0.00 | 0.00 | 70 | 1020.3 |
| 20260509123304 | 52 | 305 | 5.0 | 9.0 | 0.00 | 0.00 | 0.00 | 70 | 1020.2 |
| 20260509122306 | 52 | 316 | 5.0 | 9.0 | 0.00 | 0.00 | 0.00 | 70 | 1020.2 |
| 20260509121804 | 52 | 293 | 4.0 | 7.0 | 0.00 | 0.00 | 0.00 | 69 | 1020.2 |
| 20260509121304 | 52 | 320 | 3.0 | 7.0 | 0.00 | 0.00 | 0.00 | 69 | 1020.1 |
| 20260509120804 | 53 | 315 | 3.0 | 7.0 | 0.00 | 0.00 | 0.00 | 67 | 1020.1 |
| 20260509120304 | 53 | 283 | 5.0 | 7.0 | 0.00 | 0.00 | 0.00 | 66 | 1020.1 |
| 20260509115804 | 53 | 347 | 2.0 | 8.0 | 0.00 | 0.00 | 0.00 | 65 | 1020.0 |
| 20260509115307 | 54 | 237 | 6.0 | 12.0 | 0.00 | 0.00 | 0.00 | 64 | 1020.0 |
| 20260509114806 | 54 | 200 | 6.0 | 12.0 | 0.00 | 0.00 | 0.00 | 63 | 1020.0 |
| 20260509114306 | 54 | 323 | 3.0 | 8.0 | 0.00 | 0.00 | 0.00 | 64 | 1019.9 |
| 20260509113805 | 54 | 281 | 2.0 | 5.0 | 0.00 | 0.00 | 0.00 | 63 | 1019.8 |
| 20260509113305 | 54 | 272 | 5.0 | 10.0 | 0.00 | 0.00 | 0.00 | 62 | 1019.8 |
| 20260509112806 | 54 | 259 | 5.0 | 9.0 | 0.00 | 0.00 | 0.00 | 62 | 1019.8 |
| 20260509111806 | 54 | 219 | 4.0 | 6.0 | 0.00 | 0.00 | 0.00 | 62 | 1019.8 |
| 20260509111306 | 54 | 266 | 3.0 | 7.0 | 0.00 | 0.00 | 0.00 | 61 | 1019.7 |
| 20260509110806 | 55 | 253 | 5.0 | 14.0 | 0.00 | 0.00 | 0.00 | 61 | 1019.7 |
| 20260509110306 | 54 | 207 | 5.0 | 10.0 | 0.00 | 0.00 | 0.00 | 62 | 1019.7 |
| 20260509105805 | 54 | 265 | 6.0 | 12.0 | 0.00 | 0.00 | 0.00 | 61 | 1019.9 |
| 20260509104805 | 55 | 264 | 6.0 | 9.0 | 0.00 | 0.00 | 0.00 | 60 | 1019.8 |
| 20260509104305 | 55 | 227 | 5.0 | 15.0 | 0.00 | 0.00 | 0.00 | 60 | 1019.8 |
| 20260509103805 | 55 | 239 | 5.0 | 8.0 | 0.00 | 0.00 | 0.00 | 60 | 1019.8 |
| 20260509103306 | 55 | 292 | 3.0 | 8.0 | 0.00 | 0.00 | 0.00 | 58 | 1019.8 |
| 20260509101805 | 56 | 228 | 7.0 | 13.0 | 0.00 | 0.00 | 0.00 | 58 | 1019.8 |
| 20260509101305 | 56 | 270 | 6.0 | 12.0 | 0.00 | 0.00 | 0.00 | 58 | 1019.9 |
| 20260509100805 | 56 | 240 | 5.0 | 13.0 | 0.00 | 0.00 | 0.00 | 57 | 1019.9 |
| 20260509100306 | 56 | 219 | 6.0 | 12.0 | 0.00 | 0.00 | 0.00 | 57 | 1019.9 |
| 20260509095306 | 56 | 190 | 5.0 | 16.0 | 0.00 | 0.00 | 0.00 | 56 | 1019.8 |
| 20260509094806 | 56 | 274 | 9.0 | 20.0 | 0.00 | 0.00 | 0.00 | 55 | 1019.7 |
| 20260509094305 | 57 | 281 | 6.0 | 12.0 | 0.00 | 0.00 | 0.00 | 56 | 1019.7 |
| 20260509093805 | 57 | 230 | 10.0 | 17.0 | 0.00 | 0.00 | 0.00 | 54 | 1019.8 |
| 20260509093306 | 57 | 235 | 5.0 | 10.0 | 0.00 | 0.00 | 0.00 | 56 | 1019.8 |
| 20260509092806 | 57 | 301 | 6.0 | 10.0 | 0.00 | 0.00 | 0.00 | 55 | 1019.8 |
| 20260509092306 | 57 | 252 | 4.0 | 10.0 | 0.00 | 0.00 | 0.00 | 55 | 1019.8 |
| 20260509091806 | 57 | 276 | 5.0 | 13.0 | 0.00 | 0.00 | 0.00 | 56 | 1019.9 |
| 20260509091306 | 57 | 300 | 3.0 | 14.0 | 0.00 | 0.00 | 0.00 | 56 | 1020.0 |
| 20260509090305 | 57 | 246 | 3.0 | 6.0 | 0.00 | 0.00 | 0.00 | 56 | 1020.1 |
| 20260509085805 | 57 | 357 | 3.0 | 8.0 | 0.00 | 0.00 | 0.00 | 56 | 1020.1 |
| 20260509084805 | 58 | 296 | 5.0 | 15.0 | 0.00 | 0.00 | 0.00 | 54 | 1020.1 |
| 20260509084305 | 58 | 329 | 3.0 | 17.0 | 0.00 | 0.00 | 0.00 | 54 | 1020.1 |
| 20260509083805 | 58 | 197 | 3.0 | 7.0 | 0.00 | 0.00 | 0.00 | 54 | 1020.2 |
| 20260509082805 | 58 | 279 | 4.0 | 12.0 | 0.00 | 0.00 | 0.00 | 54 | 1020.3 |
| 20260509082307 | 58 | 236 | 7.0 | 17.0 | 0.00 | 0.00 | 0.00 | 53 | 1020.4 |
| 20260509081805 | 58 | 174 | 7.0 | 14.0 | 0.00 | 0.00 | 0.00 | 53 | 1020.5 |
| 20260509081305 | 58 | 191 | 3.0 | 9.0 | 0.00 | 0.00 | 0.00 | 54 | 1020.5 |
| 20260509080805 | 58 | 257 | 3.0 | 7.0 | 0.00 | 0.00 | 0.00 | 54 | 1020.5 |
| 20260509075806 | 58 | 243 | 5.0 | 13.0 | 0.00 | 0.00 | 0.00 | 53 | 1020.5 |
| 20260509075306 | 58 | 222 | 6.0 | 13.0 | 0.00 | 0.00 | 0.00 | 53 | 1020.4 |
| 20260509074805 | 58 | 213 | 5.0 | 12.0 | 0.00 | 0.00 | 0.00 | 53 | 1020.4 |
| 20260509074305 | 58 | 218 | 5.0 | 14.0 | 0.00 | 0.00 | 0.00 | 52 | 1020.5 |
| 20260509073805 | 58 | 225 | 5.0 | 10.0 | 0.00 | 0.00 | 0.00 | 52 | 1020.5 |
| 20260509072306 | 59 | 240 | 3.0 | 8.0 | 0.00 | 0.00 | 0.00 | 52 | 1020.6 |
| 20260509071805 | 59 | 249 | 5.0 | 10.0 | 0.00 | 0.00 | 0.00 | 51 | 1020.7 |
| 20260509071306 | 59 | 220 | 1.0 | 6.0 | 0.00 | 0.00 | 0.00 | 51 | 1020.7 |
| 20260509070805 | 60 | 299 | 3.0 | 8.0 | 0.00 | 0.00 | 0.00 | 50 | 1020.8 |
| 20260509070305 | 60 | 178 | 2.0 | 7.0 | 0.00 | 0.00 | 0.00 | 50 | 1020.8 |
| 20260509065805 | 60 | 257 | 2.0 | 9.0 | 0.00 | 0.00 | 0.00 | 50 | 1020.9 |
| 20260509065306 | 60 | 237 | 4.0 | 7.0 | 0.00 | 0.00 | 0.00 | 50 | 1020.9 |
| 20260509064305 | 60 | 226 | 5.0 | 9.0 | 0.00 | 0.00 | 0.00 | 50 | 1021.0 |
| 20260509063806 | 60 | 249 | 4.0 | 9.0 | 0.00 | 0.00 | 0.00 | 50 | 1021.0 |
| 20260509063306 | 60 | 209 | 3.0 | 7.0 | 0.00 | 0.00 | 0.00 | 50 | 1021.0 |
| 20260509062805 | 60 | 200 | 3.0 | 6.0 | 0.00 | 0.00 | 0.00 | 50 | 1021.0 |
| 20260509062306 | 60 | 238 | 3.0 | 5.0 | 0.00 | 0.00 | 0.00 | 50 | 1021.0 |
| 20260509061305 | 60 | 215 | 3.0 | 7.0 | 0.00 | 0.00 | 0.00 | 50 | 1021.0 |
| 20260509060805 | 60 | 253 | 3.0 | 7.0 | 0.00 | 0.00 | 0.00 | 50 | 1021.0 |
| 20260509060306 | 59 | 202 | 4.0 | 8.0 | 0.00 | 0.00 | 0.00 | 51 | 1020.9 |
| 20260509055805 | 59 | 219 | 3.0 | 8.0 | 0.00 | 0.00 | 0.00 | 51 | 1020.9 |
| 20260509055307 | 59 | 212 | 3.0 | 7.0 | 0.00 | 0.00 | 0.00 | 51 | 1020.9 |
| 20260509054805 | 59 | 215 | 2.0 | 7.0 | 0.00 | 0.00 | 0.00 | 51 | 1020.9 |
| 20260509054305 | 59 | 196 | 2.0 | 3.0 | 0.00 | 0.00 | 0.00 | 51 | 1020.9 |
| 20260509053805 | 59 | 223 | 2.0 | 7.0 | 0.00 | 0.00 | 0.00 | 51 | 1020.9 |
| 20260509053305 | 59 | 203 | 2.0 | 5.0 | 0.00 | 0.00 | 0.00 | 51 | 1020.9 |
| 20260509052805 | 59 | 219 | 2.0 | 6.0 | 0.00 | 0.00 | 0.00 | 51 | 1020.9 |
| 20260509052307 | 60 | 217 | 2.0 | 3.0 | 0.00 | 0.00 | 0.00 | 50 | 1020.8 |
| 20260509051805 | 60 | 242 | 2.0 | 6.0 | 0.00 | 0.00 | 0.00 | 49 | 1020.8 |
| 20260509051306 | 60 | 263 | 3.0 | 7.0 | 0.00 | 0.00 | 0.00 | 49 | 1020.7 |
| 20260509050805 | 60 | 101 | 3.0 | 6.0 | 0.00 | 0.00 | 0.00 | 49 | 1020.7 |
| 20260509050305 | 61 | 187 | 3.0 | 10.0 | 0.00 | 0.00 | 0.00 | 48 | 1020.5 |
| 20260509045805 | 61 | 278 | 5.0 | 13.0 | 0.00 | 0.00 | 0.00 | 48 | 1020.6 |
| 20260509045306 | 61 | 276 | 5.0 | 12.0 | 0.00 | 0.00 | 0.00 | 48 | 1020.5 |
| 20260509044305 | 61 | 264 | 7.0 | 12.0 | 0.00 | 0.00 | 0.00 | 47 | 1020.5 |
| 20260509043805 | 61 | 266 | 3.0 | 8.0 | 0.00 | 0.00 | 0.00 | 48 | 1020.4 |
| 20260509043306 | 61 | 173 | 3.0 | 9.0 | 0.00 | 0.00 | 0.00 | 47 | 1020.4 |
| 20260509042805 | 61 | 284 | 4.0 | 9.0 | 0.00 | 0.00 | 0.00 | 47 | 1020.3 |
| 20260509042307 | 61 | 308 | 5.0 | 12.0 | 0.00 | 0.00 | 0.00 | 47 | 1020.3 |
| 20260509041805 | 61 | 246 | 5.0 | 12.0 | 0.00 | 0.00 | 0.00 | 46 | 1020.3 |
| 20260509041305 | 61 | 324 | 2.0 | 8.0 | 0.00 | 0.00 | 0.00 | 46 | 1020.1 |
| 20260509040806 | 61 | 290 | 3.0 | 6.0 | 0.00 | 0.00 | 0.00 | 46 | 1020.0 |
| 20260509040306 | 61 | 332 | 5.0 | 12.0 | 0.00 | 0.00 | 0.00 | 46 | 1019.9 |
| 20260509035805 | 62 | 291 | 5.0 | 12.0 | 0.00 | 0.00 | 0.00 | 46 | 1019.9 |
| 20260509035306 | 62 | 256 | 4.0 | 12.0 | 0.00 | 0.00 | 0.00 | 46 | 1019.8 |
| 20260509034305 | 62 | 231 | 3.0 | 13.0 | 0.00 | 0.00 | 0.00 | 45 | 1019.6 |
| 20260509032806 | 62 | 234 | 6.0 | 15.0 | 0.00 | 0.00 | 0.00 | 45 | 1019.5 |
| 20260509032306 | 62 | 301 | 3.0 | 15.0 | 0.00 | 0.00 | 0.00 | 45 | 1019.4 |
| 20260509031805 | 62 | 272 | 6.0 | 15.0 | 0.00 | 0.00 | 0.00 | 44 | 1019.4 |
| 20260509031305 | 62 | 249 | 6.0 | 16.0 | 0.00 | 0.00 | 0.00 | 44 | 1019.2 |
| 20260509030306 | 62 | 280 | 8.0 | 13.0 | 0.00 | 0.00 | 0.00 | 44 | 1019.1 |
| 20260509025805 | 62 | 308 | 6.0 | 16.0 | 0.00 | 0.00 | 0.00 | 44 | 1019.0 |
| 20260509025307 | 63 | 283 | 6.0 | 12.0 | 0.00 | 0.00 | 0.00 | 44 | 1019.0 |
| 20260509024805 | 63 | 266 | 7.0 | 16.0 | 0.00 | 0.00 | 0.00 | 42 | 1018.9 |
| 20260509024306 | 63 | 293 | 8.0 | 18.0 | 0.00 | 0.00 | 0.00 | 41 | 1018.7 |
| 20260509023805 | 64 | 294 | 10.0 | 20.0 | 0.00 | 0.00 | 0.00 | 41 | 1018.8 |
| 20260509023306 | 64 | 283 | 9.0 | 18.0 | 0.00 | 0.00 | 0.00 | 41 | 1018.7 |
| 20260509022806 | 64 | 298 | 10.0 | 20.0 | 0.00 | 0.00 | 0.00 | 41 | 1018.7 |
| 20260509021805 | 64 | 309 | 10.0 | 21.0 | 0.00 | 0.00 | 0.00 | 40 | 1018.6 |
| 20260509021305 | 64 | 250 | 10.0 | 30.0 | 0.00 | 0.00 | 0.00 | 40 | 1018.7 |